Time,TemperatureF,DewpointF,PressureIn,WindDirection,WindDirectionDegrees,WindSpeedMPH,WindSpeedGustMPH,Humidity,HourlyPrecipIn,Conditions,Clouds,dailyrainin,SoftwareType,DateUTC
2013-05-13 00:04:00,73.0,0.0,30.02,NW,319,3.0,6.0,22,-99.99,,,-99.99,,2013-05-13 07:04:00,
2013-05-13 00:12:00,73.0,0.0,30.02,NW,320,3.0,6.0,21,-99.99,,,-99.99,,2013-05-13 07:12:00,
2013-05-13 00:20:00,72.0,0.0,30.02,NW,321,3.0,5.0,21,-99.99,,,-99.99,,2013-05-13 07:20:00,
2013-05-13 00:28:00,72.0,0.0,30.02,NW,326,2.0,5.0,21,-99.99,,,-99.99,,2013-05-13 07:28:00,
2013-05-13 00:36:00,72.0,0.0,30.02,NW,326,2.0,3.0,23,-99.99,,,-99.99,,2013-05-13 07:36:00,
2013-05-13 00:44:00,72.0,0.0,30.02,NW,325,3.0,5.0,25,-99.99,,,-99.99,,2013-05-13 07:44:00,
2013-05-13 00:52:00,72.0,0.0,30.02,NW,324,5.0,6.0,21,-99.99,,,-99.99,,2013-05-13 07:52:00,
2013-05-13 01:00:00,71.0,0.0,30.02,NW,322,5.0,5.0,22,-99.99,,,-99.99,,2013-05-13 08:00:00,
2013-05-13 01:08:00,71.0,0.0,30.02,NW,321,6.0,7.0,21,-99.99,,,-99.99,,2013-05-13 08:08:00,
2013-05-13 01:16:00,70.0,0.0,30.01,NW,321,7.0,8.0,23,-99.99,,,-99.99,,2013-05-13 08:16:00,
2013-05-13 01:24:00,70.0,0.0,30.02,NW,324,6.0,8.0,25,-99.99,,,-99.99,,2013-05-13 08:24:00,
2013-05-13 01:32:00,70.0,0.0,30.02,NW,325,5.0,8.0,24,-99.99,,,-99.99,,2013-05-13 08:32:00,
2013-05-13 01:40:00,70.0,0.0,30.02,NNW,327,2.0,7.0,23,-99.99,,,-99.99,,2013-05-13 08:40:00,
2013-05-13 01:48:00,70.0,0.0,30.02,NW,326,1.0,3.0,23,-99.99,,,-99.99,,2013-05-13 08:48:00,
2013-05-13 01:56:00,69.0,0.0,30.01,NW,325,2.0,3.0,26,-99.99,,,-99.99,,2013-05-13 08:56:00,
2013-05-13 02:04:00,71.0,0.0,30.01,NW,324,8.0,8.0,24,-99.99,,,-99.99,,2013-05-13 09:04:00,
2013-05-13 02:12:00,73.0,0.0,30.01,NW,315,10.0,14.0,27,-99.99,,,-99.99,,2013-05-13 09:12:00,
2013-05-13 02:20:00,75.0,0.0,30.01,NW,317,10.0,14.0,26,-99.99,,,-99.99,,2013-05-13 09:20:00,
2013-05-13 02:28:00,76.0,0.0,30.01,WNW,300,10.0,14.0,26,-99.99,,,-99.99,,2013-05-13 09:28:00,
2013-05-13 02:36:00,76.0,0.0,30.01,NW,317,12.0,13.0,25,-99.99,,,-99.99,,2013-05-13 09:36:00,
2013-05-13 02:44:00,75.0,0.0,30.01,WNW,302,9.0,13.0,25,-99.99,,,-99.99,,2013-05-13 09:44:00,
2013-05-13 02:52:00,75.0,0.0,30.01,WNW,302,9.0,14.0,26,-99.99,,,-99.99,,2013-05-13 09:52:00,
2013-05-13 03:00:00,76.0,0.0,30.01,NW,317,14.0,16.0,24,-99.99,,,-99.99,,2013-05-13 10:00:00,
2013-05-13 03:08:00,76.0,0.0,30.01,NW,306,13.0,18.0,24,-99.99,,,-99.99,,2013-05-13 10:08:00,
2013-05-13 03:16:00,76.0,0.0,30.01,NW,320,13.0,18.0,24,-99.99,,,-99.99,,2013-05-13 10:16:00,
2013-05-13 03:24:00,75.0,0.0,30.01,NW,317,10.0,17.0,25,-99.99,,,-99.99,,2013-05-13 10:24:00,
2013-05-13 03:32:00,75.0,0.0,30.01,NW,317,9.0,17.0,25,-99.99,,,-99.99,,2013-05-13 10:32:00,
2013-05-13 03:40:00,75.0,0.0,30.01,NW,322,15.0,21.0,26,-99.99,,,-99.99,,2013-05-13 10:40:00,
2013-05-13 03:48:00,75.0,0.0,30.01,NW,321,15.0,17.0,27,-99.99,,,-99.99,,2013-05-13 10:48:00,
2013-05-13 03:56:00,74.0,0.0,30.01,NW,319,13.0,18.0,28,-99.99,,,-99.99,,2013-05-13 10:56:00,
2013-05-13 04:04:00,74.0,0.0,30.01,NW,312,13.0,18.0,29,-99.99,,,-99.99,,2013-05-13 11:04:00,
2013-05-13 04:12:00,74.0,0.0,30.01,NW,311,12.0,18.0,28,-99.99,,,-99.99,,2013-05-13 11:12:00,
2013-05-13 04:20:00,74.0,0.0,30.01,NW,322,9.0,17.0,29,-99.99,,,-99.99,,2013-05-13 11:20:00,
2013-05-13 04:28:00,74.0,0.0,30.01,West,281,10.0,15.0,28,-99.99,,,-99.99,,2013-05-13 11:28:00,
2013-05-13 04:36:00,74.0,0.0,30.01,NW,311,12.0,15.0,28,-99.99,,,-99.99,,2013-05-13 11:36:00,
2013-05-13 04:44:00,74.0,0.0,30.01,NW,318,12.0,15.0,31,-99.99,,,-99.99,,2013-05-13 11:44:00,
2013-05-13 04:52:00,74.0,0.0,30.02,WNW,303,10.0,14.0,28,-99.99,,,-99.99,,2013-05-13 11:52:00,
2013-05-13 05:00:00,73.0,0.0,30.01,NW,309,7.0,13.0,29,-99.99,,,-99.99,,2013-05-13 12:00:00,
2013-05-13 05:08:00,73.0,0.0,30.02,NW,314,8.0,14.0,29,-99.99,,,-99.99,,2013-05-13 12:08:00,
2013-05-13 05:16:00,73.0,0.0,30.02,NW,322,10.0,14.0,32,-99.99,,,-99.99,,2013-05-13 12:16:00,
2013-05-13 05:24:00,73.0,0.0,30.02,NW,319,12.0,13.0,31,-99.99,,,-99.99,,2013-05-13 12:24:00,
2013-05-13 05:32:00,72.0,0.0,30.02,NW,323,9.0,12.0,29,-99.99,,,-99.99,,2013-05-13 12:32:00,
2013-05-13 05:40:00,72.0,0.0,30.02,NW,318,9.0,12.0,30,-99.99,,,-99.99,,2013-05-13 12:40:00,
2013-05-13 05:48:00,72.0,0.0,30.02,NW,322,9.0,12.0,31,-99.99,,,-99.99,,2013-05-13 12:48:00,
2013-05-13 05:56:00,71.0,0.0,30.02,NW,314,5.0,10.0,31,-99.99,,,-99.99,,2013-05-13 12:56:00,
2013-05-13 06:04:00,70.0,0.0,30.02,NW,318,3.0,8.0,32,-99.99,,,-99.99,,2013-05-13 13:04:00,
2013-05-13 06:12:00,73.0,0.0,30.02,NW,326,5.0,12.0,29,-99.99,,,-99.99,,2013-05-13 13:12:00,
2013-05-13 06:20:00,74.0,0.0,30.03,NW,319,7.0,12.0,30,-99.99,,,-99.99,,2013-05-13 13:20:00,
2013-05-13 06:28:00,75.0,0.0,30.03,NW,319,7.0,12.0,27,-99.99,,,-99.99,,2013-05-13 13:28:00,
2013-05-13 06:36:00,76.0,0.0,30.03,NW,320,8.0,9.0,29,-99.99,,,-99.99,,2013-05-13 13:36:00,
2013-05-13 06:44:00,75.0,0.0,30.04,NW,315,3.0,8.0,29,-99.99,,,-99.99,,2013-05-13 13:44:00,
2013-05-13 06:52:00,77.0,0.0,30.04,NW,326,0.0,5.0,28,-99.99,,,-99.99,,2013-05-13 13:52:00,
2013-05-13 07:00:00,77.0,0.0,30.04,NW,319,0.0,2.0,28,-99.99,,,-99.99,,2013-05-13 14:00:00,
2013-05-13 07:08:00,77.0,0.0,30.04,NW,319,1.0,2.0,28,-99.99,,,-99.99,,2013-05-13 14:08:00,
2013-05-13 07:16:00,80.0,0.0,30.04,NW,326,0.0,3.0,26,-99.99,,,-99.99,,2013-05-13 14:16:00,
2013-05-13 07:24:00,81.0,0.0,30.05,NW,326,7.0,7.0,23,-99.99,,,-99.99,,2013-05-13 14:24:00,
2013-05-13 07:32:00,83.0,0.0,30.05,NNW,331,5.0,7.0,23,-99.99,,,-99.99,,2013-05-13 14:32:00,
2013-05-13 07:40:00,83.0,0.0,30.05,NW,325,6.0,9.0,24,-99.99,,,-99.99,,2013-05-13 14:40:00,
2013-05-13 07:48:00,84.0,0.0,30.05,NNW,327,3.0,12.0,21,-99.99,,,-99.99,,2013-05-13 14:48:00,
2013-05-13 07:56:00,84.0,0.0,30.05,NNW,327,5.0,12.0,23,-99.99,,,-99.99,,2013-05-13 14:56:00,
2013-05-13 08:04:00,86.0,0.0,30.05,NW,325,7.0,10.0,24,-99.99,,,-99.99,,2013-05-13 15:04:00,
2013-05-13 08:12:00,86.0,0.0,30.05,NNW,327,7.0,10.0,23,-99.99,,,-99.99,,2013-05-13 15:12:00,
2013-05-13 08:20:00,87.0,0.0,30.05,NNW,329,8.0,10.0,20,-99.99,,,-99.99,,2013-05-13 15:20:00,
2013-05-13 08:28:00,88.0,0.0,30.05,NNW,327,5.0,10.0,20,-99.99,,,-99.99,,2013-05-13 15:28:00,
2013-05-13 08:36:00,89.0,0.0,30.05,NNW,332,2.0,9.0,19,-99.99,,,-99.99,,2013-05-13 15:36:00,
2013-05-13 08:44:00,89.0,0.0,30.05,NNW,333,5.0,9.0,20,-99.99,,,-99.99,,2013-05-13 15:44:00,
2013-05-13 09:04:00,92.0,0.0,30.05,NNW,340,1.0,6.0,19,-99.99,,,-99.99,,2013-05-13 16:04:00,
2013-05-13 09:12:00,91.0,0.0,30.05,NNW,339,3.0,6.0,17,-99.99,,,-99.99,,2013-05-13 16:12:00,
2013-05-13 09:20:00,93.0,0.0,30.05,NNW,338,2.0,6.0,19,-99.99,,,-99.99,,2013-05-13 16:20:00,
2013-05-13 09:28:00,92.0,0.0,30.05,NNW,340,2.0,5.0,20,-99.99,,,-99.99,,2013-05-13 16:28:00,
2013-05-13 09:48:00,92.0,0.0,30.05,NNW,342,1.0,7.0,17,-99.99,,,-99.99,,2013-05-13 16:48:00,
2013-05-13 09:56:00,93.0,0.0,30.05,NNW,338,3.0,5.0,16,-99.99,,,-99.99,,2013-05-13 16:56:00,
2013-05-13 10:04:00,95.0,0.0,30.05,NNW,340,2.0,5.0,15,-99.99,,,-99.99,,2013-05-13 17:04:00,
2013-05-13 10:12:00,94.0,0.0,30.05,NNW,347,1.0,7.0,17,-99.99,,,-99.99,,2013-05-13 17:12:00,
2013-05-13 10:20:00,93.0,0.0,30.05,NNW,342,2.0,6.0,16,-99.99,,,-99.99,,2013-05-13 17:20:00,
2013-05-13 10:28:00,94.0,0.0,30.05,NNW,342,3.0,6.0,15,-99.99,,,-99.99,,2013-05-13 17:28:00,
2013-05-13 10:36:00,96.0,0.0,30.05,NNW,339,2.0,7.0,16,-99.99,,,-99.99,,2013-05-13 17:36:00,
2013-05-13 10:44:00,98.0,0.0,30.05,NNW,340,1.0,7.0,15,-99.99,,,-99.99,,2013-05-13 17:44:00,
2013-05-13 10:52:00,99.0,0.0,30.05,NNW,341,6.0,12.0,13,-99.99,,,-99.99,,2013-05-13 17:52:00,
2013-05-13 11:00:00,99.0,0.0,30.04,NW,320,2.0,12.0,12,-99.99,,,-99.99,,2013-05-13 18:00:00,
2013-05-13 11:08:00,99.0,0.0,30.04,NNW,337,2.0,9.0,11,-99.99,,,-99.99,,2013-05-13 18:08:00,
2013-05-13 11:16:00,98.0,0.0,30.04,NNW,337,9.0,13.0,14,-99.99,,,-99.99,,2013-05-13 18:16:00,
2013-05-13 11:24:00,100.0,0.0,30.04,NNW,338,8.0,15.0,10,-99.99,,,-99.99,,2013-05-13 18:24:00,
2013-05-13 11:32:00,100.0,0.0,30.04,NW,326,9.0,13.0,14,-99.99,,,-99.99,,2013-05-13 18:32:00,
2013-05-13 11:40:00,100.0,0.0,30.03,NNW,346,5.0,12.0,12,-99.99,,,-99.99,,2013-05-13 18:40:00,
2013-05-13 11:48:00,100.0,0.0,30.03,NNW,341,6.0,12.0,10,-99.99,,,-99.99,,2013-05-13 18:48:00,
2013-05-13 11:56:00,99.0,0.0,30.03,NNW,332,3.0,12.0,11,-99.99,,,-99.99,,2013-05-13 18:56:00,
2013-05-13 12:04:00,98.0,0.0,30.03,NNW,345,2.0,10.0,14,-99.99,,,-99.99,,2013-05-13 19:04:00,
2013-05-13 12:12:00,100.0,0.0,30.02,NNW,343,7.0,12.0,10,-99.99,,,-99.99,,2013-05-13 19:12:00,
2013-05-13 12:20:00,102.0,0.0,30.02,NW,326,17.0,22.0,9,-99.99,,,-99.99,,2013-05-13 19:20:00,
2013-05-13 12:28:00,100.0,0.0,30.02,NNW,328,13.0,22.0,7,-99.99,,,-99.99,,2013-05-13 19:28:00,
2013-05-13 12:36:00,98.0,0.0,30.02,NW,315,6.0,26.0,7,-99.99,,,-99.99,,2013-05-13 19:36:00,
2013-05-13 12:44:00,98.0,0.0,30.01,NW,314,15.0,25.0,9,-99.99,,,-99.99,,2013-05-13 19:44:00,
2013-05-13 12:52:00,98.0,0.0,30.01,NW,318,18.0,21.0,10,-99.99,,,-99.99,,2013-05-13 19:52:00,
2013-05-13 13:00:00,98.0,0.0,30.01,NNW,328,15.0,25.0,8,-99.99,,,-99.99,,2013-05-13 20:00:00,
2013-05-13 13:08:00,98.0,0.0,30.01,NW,317,15.0,24.0,12,-99.99,,,-99.99,,2013-05-13 20:08:00,
2013-05-13 13:16:00,99.0,0.0,30.00,NW,319,9.0,20.0,10,-99.99,,,-99.99,,2013-05-13 20:16:00,
2013-05-13 13:24:00,98.0,0.0,30.00,NW,322,8.0,17.0,12,-99.99,,,-99.99,,2013-05-13 20:24:00,
2013-05-13 13:32:00,100.0,0.0,29.99,NW,320,21.0,26.0,8,-99.99,,,-99.99,,2013-05-13 20:32:00,
2013-05-13 13:40:00,99.0,0.0,30.00,NW,320,9.0,24.0,8,-99.99,,,-99.99,,2013-05-13 20:40:00,
2013-05-13 13:48:00,99.0,0.0,30.00,NW,315,5.0,20.0,9,-99.99,,,-99.99,,2013-05-13 20:48:00,
2013-05-13 13:56:00,100.0,0.0,29.99,NW,322,17.0,25.0,8,-99.99,,,-99.99,,2013-05-13 20:56:00,
2013-05-13 14:04:00,98.0,0.0,29.99,NW,314,7.0,25.0,10,-99.99,,,-99.99,,2013-05-13 21:04:00,
2013-05-13 14:12:00,100.0,0.0,29.99,NNW,336,18.0,23.0,7,-99.99,,,-99.99,,2013-05-13 21:12:00,
2013-05-13 14:20:00,101.0,0.0,29.98,NNW,333,2.0,23.0,8,-99.99,,,-99.99,,2013-05-13 21:20:00,
2013-05-13 14:28:00,100.0,0.0,29.98,NW,320,16.0,22.0,7,-99.99,,,-99.99,,2013-05-13 21:28:00,
2013-05-13 14:36:00,98.0,0.0,29.98,NW,319,7.0,22.0,9,-99.99,,,-99.99,,2013-05-13 21:36:00,
2013-05-13 14:44:00,98.0,0.0,29.98,NW,321,15.0,18.0,8,-99.99,,,-99.99,,2013-05-13 21:44:00,
2013-05-13 14:52:00,98.0,0.0,29.97,NW,324,9.0,20.0,10,-99.99,,,-99.99,,2013-05-13 21:52:00,
2013-05-13 15:00:00,101.0,0.0,29.97,NNW,335,9.0,13.0,8,-99.99,,,-99.99,,2013-05-13 22:00:00,
2013-05-13 15:08:00,100.0,0.0,29.96,NW,313,15.0,21.0,11,-99.99,,,-99.99,,2013-05-13 22:08:00,
2013-05-13 15:16:00,100.0,0.0,29.96,NW,320,12.0,21.0,9,-99.99,,,-99.99,,2013-05-13 22:16:00,
2013-05-13 15:24:00,98.0,0.0,29.96,NW,321,9.0,20.0,10,-99.99,,,-99.99,,2013-05-13 22:24:00,
2013-05-13 15:32:00,98.0,0.0,29.95,NW,324,0.0,13.0,11,-99.99,,,-99.99,,2013-05-13 22:32:00,
2013-05-13 15:40:00,99.0,0.0,29.95,NNW,329,8.0,18.0,7,-99.99,,,-99.99,,2013-05-13 22:40:00,
2013-05-13 15:48:00,99.0,0.0,29.94,NW,318,10.0,20.0,7,-99.99,,,-99.99,,2013-05-13 22:48:00,
2013-05-13 15:56:00,99.0,0.0,29.94,NW,319,15.0,18.0,7,-99.99,,,-99.99,,2013-05-13 22:56:00,
2013-05-13 16:04:00,98.0,0.0,29.94,NW,315,9.0,22.0,9,-99.99,,,-99.99,,2013-05-13 23:04:00,
2013-05-13 16:12:00,98.0,0.0,29.94,NW,315,9.0,17.0,9,-99.99,,,-99.99,,2013-05-13 23:12:00,
2013-05-13 16:20:00,97.0,0.0,29.93,WNW,292,2.0,16.0,8,-99.99,,,-99.99,,2013-05-13 23:20:00,
2013-05-13 16:28:00,98.0,0.0,29.92,NNW,327,14.0,16.0,7,-99.99,,,-99.99,,2013-05-13 23:28:00,
2013-05-13 16:36:00,98.0,0.0,29.92,NW,319,8.0,16.0,9,-99.99,,,-99.99,,2013-05-13 23:36:00,
2013-05-13 16:44:00,99.0,0.0,29.91,NW,322,8.0,25.0,9,-99.99,,,-99.99,,2013-05-13 23:44:00,
2013-05-13 16:52:00,99.0,0.0,29.91,NNW,336,8.0,18.0,7,-99.99,,,-99.99,,2013-05-13 23:52:00,
2013-05-13 17:00:00,99.0,0.0,29.91,NNW,331,6.0,15.0,9,-99.99,,,-99.99,,2013-05-14 00:00:00,
2013-05-13 17:08:00,98.0,0.0,29.91,NW,312,9.0,22.0,8,-99.99,,,-99.99,,2013-05-14 00:08:00,
2013-05-13 17:16:00,97.0,0.0,29.90,NW,322,5.0,10.0,8,-99.99,,,-99.99,,2013-05-14 00:16:00,
2013-05-13 17:24:00,97.0,0.0,29.90,NW,323,18.0,22.0,12,-99.99,,,-99.99,,2013-05-14 00:24:00,
2013-05-13 17:32:00,98.0,0.0,29.89,NNW,333,14.0,23.0,11,-99.99,,,-99.99,,2013-05-14 00:32:00,
2013-05-13 17:40:00,98.0,0.0,29.89,NW,325,12.0,22.0,9,-99.99,,,-99.99,,2013-05-14 00:40:00,
2013-05-13 17:48:00,98.0,0.0,29.88,NW,317,23.0,23.0,10,-99.99,,,-99.99,,2013-05-14 00:48:00,
2013-05-13 17:56:00,98.0,0.0,29.89,NW,323,10.0,25.0,11,-99.99,,,-99.99,,2013-05-14 00:56:00,
2013-05-13 18:04:00,98.0,0.0,29.89,NNW,335,9.0,21.0,11,-99.99,,,-99.99,,2013-05-14 01:04:00,
2013-05-13 18:12:00,97.0,0.0,29.89,NNW,338,13.0,21.0,10,-99.99,,,-99.99,,2013-05-14 01:12:00,
2013-05-13 18:20:00,97.0,0.0,29.89,NW,322,13.0,20.0,10,-99.99,,,-99.99,,2013-05-14 01:20:00,
2013-05-13 18:28:00,96.0,0.0,29.89,NNW,333,14.0,23.0,12,-99.99,,,-99.99,,2013-05-14 01:28:00,
2013-05-13 18:36:00,96.0,0.0,29.89,NNW,327,20.0,26.0,10,-99.99,,,-99.99,,2013-05-14 01:36:00,
2013-05-13 18:44:00,95.0,0.0,29.89,NNW,331,10.0,25.0,14,-99.99,,,-99.99,,2013-05-14 01:44:00,
2013-05-13 18:52:00,95.0,0.0,29.89,NNW,331,12.0,21.0,12,-99.99,,,-99.99,,2013-05-14 01:52:00,
2013-05-13 19:00:00,95.0,0.0,29.89,NNW,335,12.0,22.0,13,-99.99,,,-99.99,,2013-05-14 02:00:00,
2013-05-13 19:08:00,94.0,0.0,29.89,NW,319,14.0,25.0,13,-99.99,,,-99.99,,2013-05-14 02:08:00,
2013-05-13 19:16:00,93.0,0.0,29.90,NNW,327,13.0,26.0,11,-99.99,,,-99.99,,2013-05-14 02:16:00,
2013-05-13 19:24:00,93.0,0.0,29.90,NNW,329,17.0,26.0,13,-99.99,,,-99.99,,2013-05-14 02:24:00,
2013-05-13 19:32:00,92.0,0.0,29.90,NW,318,13.0,26.0,13,-99.99,,,-99.99,,2013-05-14 02:32:00,
2013-05-13 19:40:00,92.0,0.0,29.90,NW,322,10.0,28.0,11,-99.99,,,-99.99,,2013-05-14 02:40:00,
2013-05-13 19:48:00,92.0,0.0,29.90,NW,315,15.0,25.0,11,-99.99,,,-99.99,,2013-05-14 02:48:00,
2013-05-13 19:56:00,91.0,0.0,29.91,NNW,329,9.0,26.0,13,-99.99,,,-99.99,,2013-05-14 02:56:00,
2013-05-13 20:04:00,90.0,0.0,29.91,NNW,329,13.0,21.0,13,-99.99,,,-99.99,,2013-05-14 03:04:00,
2013-05-13 20:12:00,90.0,0.0,29.91,NW,321,12.0,18.0,15,-99.99,,,-99.99,,2013-05-14 03:12:00,
2013-05-13 20:20:00,90.0,0.0,29.91,NW,325,12.0,20.0,12,-99.99,,,-99.99,,2013-05-14 03:20:00,
2013-05-13 20:28:00,89.0,0.0,29.92,NNW,333,9.0,21.0,15,-99.99,,,-99.99,,2013-05-14 03:28:00,
2013-05-13 20:36:00,89.0,0.0,29.92,NNW,336,15.0,21.0,15,-99.99,,,-99.99,,2013-05-14 03:36:00,
2013-05-13 20:44:00,88.0,0.0,29.92,NNW,329,13.0,18.0,19,-99.99,,,-99.99,,2013-05-14 03:44:00,
2013-05-13 20:52:00,88.0,0.0,29.92,NNW,330,7.0,20.0,16,-99.99,,,-99.99,,2013-05-14 03:52:00,
2013-05-13 21:00:00,88.0,0.0,29.93,NNW,331,9.0,15.0,14,-99.99,,,-99.99,,2013-05-14 04:00:00,
2013-05-13 21:04:00,87.0,0.0,29.93,NW,326,12.0,15.0,14,-99.99,,,-99.99,,2013-05-14 04:04:00,
2013-05-13 21:08:00,87.0,0.0,29.93,NW,323,12.0,17.0,16,-99.99,,,-99.99,,2013-05-14 04:08:00,
2013-05-13 21:16:00,87.0,0.0,29.93,NNW,336,6.0,18.0,16,-99.99,,,-99.99,,2013-05-14 04:16:00,
2013-05-13 21:20:00,87.0,0.0,29.93,NNW,330,6.0,16.0,16,-99.99,,,-99.99,,2013-05-14 04:20:00,
2013-05-13 21:28:00,86.0,0.0,29.93,NW,325,7.0,12.0,16,-99.99,,,-99.99,,2013-05-14 04:28:00,
2013-05-13 21:32:00,86.0,0.0,29.94,NNW,327,8.0,12.0,16,-99.99,,,-99.99,,2013-05-14 04:32:00,
2013-05-13 21:40:00,86.0,0.0,29.94,NNW,327,8.0,12.0,15,-99.99,,,-99.99,,2013-05-14 04:40:00,
2013-05-13 21:48:00,86.0,0.0,29.94,NW,326,8.0,14.0,15,-99.99,,,-99.99,,2013-05-14 04:48:00,
2013-05-13 21:56:00,86.0,0.0,29.94,NW,323,9.0,14.0,15,-99.99,,,-99.99,,2013-05-14 04:56:00,
2013-05-13 22:04:00,85.0,0.0,29.94,NW,323,6.0,14.0,16,-99.99,,,-99.99,,2013-05-14 05:04:00,
2013-05-13 22:12:00,84.0,0.0,29.94,NNW,327,7.0,10.0,15,-99.99,,,-99.99,,2013-05-14 05:12:00,
2013-05-13 22:20:00,84.0,0.0,29.94,NW,322,3.0,10.0,16,-99.99,,,-99.99,,2013-05-14 05:20:00,
2013-05-13 22:28:00,82.0,0.0,29.94,NW,324,3.0,8.0,16,-99.99,,,-99.99,,2013-05-14 05:28:00,
2013-05-13 22:36:00,82.0,0.0,29.94,NNW,329,0.0,7.0,16,-99.99,,,-99.99,,2013-05-14 05:36:00,
2013-05-13 22:44:00,82.0,0.0,29.94,NNW,333,0.0,3.0,16,-99.99,,,-99.99,,2013-05-14 05:44:00,
2013-05-13 22:52:00,81.0,0.0,29.94,NNW,337,2.0,3.0,19,-99.99,,,-99.99,,2013-05-14 05:52:00,
2013-05-13 23:00:00,82.0,0.0,29.94,NNW,338,1.0,2.0,17,-99.99,,,-99.99,,2013-05-14 06:00:00,
2013-05-13 23:08:00,82.0,0.0,29.94,NNW,337,0.0,2.0,16,-99.99,,,-99.99,,2013-05-14 06:08:00,
2013-05-13 23:16:00,82.0,0.0,29.94,NNW,328,1.0,6.0,16,-99.99,,,-99.99,,2013-05-14 06:16:00,
2013-05-13 23:24:00,82.0,0.0,29.94,NW,322,6.0,6.0,18,-99.99,,,-99.99,,2013-05-14 06:24:00,
2013-05-13 23:32:00,81.0,0.0,29.94,NNW,327,5.0,8.0,20,-99.99,,,-99.99,,2013-05-14 06:32:00,
2013-05-13 23:40:00,80.0,0.0,29.94,NNW,331,2.0,6.0,17,-99.99,,,-99.99,,2013-05-14 06:40:00,
2013-05-13 23:48:00,79.0,0.0,29.94,NNW,328,3.0,5.0,22,-99.99,,,-99.99,,2013-05-14 06:48:00,
2013-05-13 23:56:00,80.0,0.0,29.94,NNW,328,2.0,3.0,19,-99.99,,,-99.99,,2013-05-14 06:56:00,